Time,TemperatureF,DewpointF,PressureIn,WindDirection,WindDirectionDegrees,WindSpeedMPH,WindSpeedGustMPH,Humidity,HourlyPrecipIn,Conditions,Clouds,dailyrainin,SoftwareType,DateUTC
2013-03-26 03:00:00,33.1,21.5,29.77,North,-999,-999.0,0.0,62,0.00,,---,0.01,VWS V14.01,2013-03-26 07:00:00,
2013-03-26 03:05:00,33.1,21.5,29.77,North,-999,-999.0,0.0,62,0.00,,---,0.01,VWS V14.01,2013-03-26 07:05:00,
2013-03-26 05:00:00,31.1,21.1,29.75,North,-999,-999.0,0.0,66,0.00,,---,0.01,VWS V14.01,2013-03-26 09:00:00,
2013-03-26 05:06:00,31.1,21.1,29.75,North,-999,-999.0,0.0,66,0.00,,---,0.01,VWS V14.01,2013-03-26 09:06:00,
2013-03-26 07:00:00,29.0,20.8,29.77,North,-999,-999.0,0.0,71,0.00,,---,0.01,VWS V14.01,2013-03-26 11:00:00,
2013-03-26 07:06:00,29.0,20.8,29.77,North,-999,-999.0,0.0,71,0.00,,---,0.01,VWS V14.01,2013-03-26 11:06:00,
2013-03-26 08:00:00,29.0,21.4,29.79,North,-999,-999.0,0.0,73,0.00,,---,0.01,VWS V14.01,2013-03-26 12:00:00,
2013-03-26 08:05:00,29.0,21.4,29.79,North,-999,-999.0,0.0,73,0.00,,---,0.01,VWS V14.01,2013-03-26 12:05:00,
2013-03-26 09:00:00,34.2,25.5,29.81,North,-999,-999.0,0.0,70,0.00,,---,0.01,VWS V14.01,2013-03-26 13:00:00,
2013-03-26 09:05:00,34.6,25.5,29.81,North,-999,-999.0,0.0,69,0.00,,---,0.01,VWS V14.01,2013-03-26 13:05:00,
2013-03-26 09:10:00,34.9,25.1,29.81,North,-999,-999.0,0.0,67,0.00,,---,0.01,VWS V14.01,2013-03-26 13:10:00,
2013-03-26 09:15:00,35.5,25.6,29.82,North,-999,-999.0,0.0,67,0.00,,---,0.01,VWS V14.01,2013-03-26 13:15:00,
2013-03-26 09:20:00,35.8,25.6,29.82,North,-999,-999.0,0.0,66,0.00,,---,0.01,VWS V14.01,2013-03-26 13:20:00,
2013-03-26 09:25:00,36.4,26.1,29.82,North,-999,-999.0,0.0,66,0.00,,---,0.01,VWS V14.01,2013-03-26 13:25:00,
2013-03-26 09:30:00,36.7,26.1,29.82,North,-999,-999.0,0.0,65,0.00,,---,0.01,VWS V14.01,2013-03-26 13:30:00,
2013-03-26 09:35:00,37.3,25.5,29.82,North,-999,-999.0,0.0,62,0.00,,---,0.01,VWS V14.01,2013-03-26 13:35:00,
2013-03-26 09:40:00,37.6,26.2,29.82,North,-999,-999.0,0.0,63,0.00,,---,0.01,VWS V14.01,2013-03-26 13:40:00,
2013-03-26 09:45:00,38.0,25.8,29.82,North,-999,-999.0,0.0,61,0.00,,---,0.01,VWS V14.01,2013-03-26 13:45:00,
2013-03-26 09:51:00,38.5,26.2,29.82,North,-999,-999.0,0.0,61,0.00,,---,0.01,VWS V14.01,2013-03-26 13:51:00,
2013-03-26 09:56:00,38.9,26.2,29.83,North,-999,-999.0,0.0,60,0.00,,---,0.01,VWS V14.01,2013-03-26 13:56:00,
2013-03-26 10:02:00,39.4,26.7,29.82,North,-999,-999.0,0.0,60,0.00,,---,0.01,VWS V14.01,2013-03-26 14:02:00,
2013-03-26 10:07:00,40.0,26.8,29.83,North,-999,-999.0,0.0,59,0.00,,---,0.01,VWS V14.01,2013-03-26 14:07:00,
2013-03-26 10:12:00,40.3,27.1,29.83,North,-999,-999.0,0.0,59,0.00,,---,0.01,VWS V14.01,2013-03-26 14:12:00,
2013-03-26 10:17:00,40.9,26.4,29.83,North,-999,-999.0,0.0,56,0.00,,---,0.01,VWS V14.01,2013-03-26 14:17:00,
2013-03-26 10:23:00,41.2,26.3,29.83,North,-999,-999.0,0.0,55,0.00,,---,0.01,VWS V14.01,2013-03-26 14:23:00,
2013-03-26 10:28:00,42.5,27.9,29.83,North,-999,-999.0,0.0,56,0.00,,---,0.01,VWS V14.01,2013-03-26 14:28:00,
2013-03-26 10:34:00,45.4,26.9,29.83,North,-999,-999.0,0.0,48,0.00,,---,0.01,VWS V14.01,2013-03-26 14:34:00,
2013-03-26 10:39:00,46.4,26.8,29.84,North,-999,-999.0,0.0,46,0.00,,---,0.01,VWS V14.01,2013-03-26 14:39:00,
2013-03-26 10:44:00,47.3,27.6,29.84,North,-999,-999.0,0.0,46,0.00,,---,0.01,VWS V14.01,2013-03-26 14:44:00,
2013-03-26 10:49:00,48.8,27.9,29.84,North,-999,-999.0,0.0,44,0.00,,---,0.01,VWS V14.01,2013-03-26 14:49:00,
2013-03-26 10:54:00,49.7,28.1,29.84,North,-999,-999.0,0.0,43,0.00,,---,0.01,VWS V14.01,2013-03-26 14:54:00,
2013-03-26 10:59:00,48.2,27.3,29.84,North,-999,-999.0,0.0,44,0.00,,---,0.01,VWS V14.01,2013-03-26 14:59:00,
2013-03-26 11:05:00,48.2,27.9,29.84,North,-999,-999.0,0.0,45,0.00,,---,0.01,VWS V14.01,2013-03-26 15:05:00,
2013-03-26 11:10:00,50.4,29.3,29.84,North,-999,-999.0,0.0,44,0.00,,---,0.01,VWS V14.01,2013-03-26 15:10:00,
2013-03-26 11:15:00,51.5,29.2,29.85,North,-999,-999.0,0.0,42,0.00,,---,0.01,VWS V14.01,2013-03-26 15:15:00,
2013-03-26 11:20:00,50.4,28.2,29.85,North,-999,-999.0,0.0,42,0.00,,---,0.01,VWS V14.01,2013-03-26 15:20:00,
2013-03-26 11:25:00,48.4,25.8,29.85,North,-999,-999.0,0.0,41,0.00,,---,0.01,VWS V14.01,2013-03-26 15:25:00,
2013-03-26 11:30:00,47.2,25.3,29.85,North,-999,-999.0,0.0,42,0.00,,---,0.01,VWS V14.01,2013-03-26 15:30:00,
2013-03-26 11:35:00,46.8,25.5,29.85,North,-999,-999.0,0.0,43,0.00,,---,0.01,VWS V14.01,2013-03-26 15:35:00,
2013-03-26 11:41:00,47.0,25.7,29.85,North,-999,-999.0,0.0,43,0.00,,---,0.01,VWS V14.01,2013-03-26 15:41:00,
2013-03-26 11:47:00,49.9,28.3,29.85,North,-999,-999.0,0.0,43,0.00,,---,0.01,VWS V14.01,2013-03-26 15:47:00,
2013-03-26 11:52:00,52.6,29.0,29.85,North,-999,-999.0,0.0,40,0.00,,---,0.01,VWS V14.01,2013-03-26 15:52:00,
2013-03-26 11:57:00,52.6,28.4,29.85,North,-999,-999.0,0.0,39,0.00,,---,0.01,VWS V14.01,2013-03-26 15:57:00,
2013-03-26 12:03:00,50.4,26.4,29.85,North,-999,-999.0,0.0,39,0.00,,---,0.01,VWS V14.01,2013-03-26 16:03:00,
2013-03-26 12:08:00,48.6,24.2,29.85,North,-999,-999.0,0.0,38,0.00,,---,0.01,VWS V14.01,2013-03-26 16:08:00,
2013-03-26 12:13:00,47.5,24.4,29.85,North,-999,-999.0,0.0,40,0.00,,---,0.01,VWS V14.01,2013-03-26 16:13:00,
2013-03-26 12:18:00,48.2,24.4,29.85,North,-999,-999.0,0.0,39,0.00,,---,0.01,VWS V14.01,2013-03-26 16:18:00,
2013-03-26 12:23:00,48.8,24.3,29.85,North,-999,-999.0,0.0,38,0.00,,---,0.01,VWS V14.01,2013-03-26 16:23:00,
2013-03-26 12:29:00,49.5,25.6,29.85,North,-999,-999.0,0.0,39,0.00,,---,0.01,VWS V14.01,2013-03-26 16:29:00,
2013-03-26 12:34:00,49.0,25.1,29.85,North,-999,-999.0,0.0,39,0.00,,---,0.01,VWS V14.01,2013-03-26 16:34:00,
2013-03-26 12:39:00,49.7,26.4,29.85,North,-999,-999.0,0.0,40,0.00,,---,0.01,VWS V14.01,2013-03-26 16:39:00,
2013-03-26 12:44:00,50.0,25.4,29.85,North,-999,-999.0,0.0,38,0.00,,---,0.01,VWS V14.01,2013-03-26 16:44:00,
2013-03-26 12:49:00,49.0,24.5,29.85,North,-999,-999.0,0.0,38,0.00,,---,0.01,VWS V14.01,2013-03-26 16:49:00,
2013-03-26 12:54:00,48.1,23.7,29.85,North,-999,-999.0,0.0,38,0.00,,---,0.01,VWS V14.01,2013-03-26 16:54:00,
2013-03-26 12:59:00,47.7,24.0,29.85,North,-999,-999.0,0.0,39,0.00,,---,0.01,VWS V14.01,2013-03-26 16:59:00,
2013-03-26 13:05:00,47.7,24.6,29.86,North,-999,-999.0,0.0,40,0.00,,---,0.01,VWS V14.01,2013-03-26 17:05:00,
2013-03-26 13:10:00,47.9,24.1,29.85,North,-999,-999.0,0.0,39,0.00,,---,0.01,VWS V14.01,2013-03-26 17:10:00,
2013-03-26 13:15:00,48.6,24.8,29.86,North,-999,-999.0,0.0,39,0.00,,---,0.01,VWS V14.01,2013-03-26 17:15:00,
2013-03-26 13:20:00,48.8,24.3,29.86,North,-999,-999.0,0.0,38,0.00,,---,0.01,VWS V14.01,2013-03-26 17:20:00,
2013-03-26 13:25:00,49.0,24.5,29.86,North,-999,-999.0,0.0,38,0.00,,---,0.01,VWS V14.01,2013-03-26 17:25:00,
2013-03-26 13:30:00,49.1,24.6,29.86,North,-999,-999.0,0.0,38,0.00,,---,0.01,VWS V14.01,2013-03-26 17:30:00,
2013-03-26 13:35:00,49.9,25.3,29.85,North,-999,-999.0,0.0,38,0.00,,---,0.01,VWS V14.01,2013-03-26 17:35:00,
2013-03-26 13:40:00,51.5,27.4,29.85,North,-999,-999.0,0.0,39,0.00,,---,0.01,VWS V14.01,2013-03-26 17:40:00,
2013-03-26 13:45:00,54.0,29.0,29.85,North,-999,-999.0,0.0,38,0.00,,---,0.01,VWS V14.01,2013-03-26 17:45:00,
2013-03-26 13:50:00,54.2,27.9,29.85,North,-999,-999.0,0.0,36,0.00,,---,0.01,VWS V14.01,2013-03-26 17:50:00,
2013-03-26 13:55:00,52.0,25.9,29.85,North,-999,-999.0,0.0,36,0.00,,---,0.01,VWS V14.01,2013-03-26 17:55:00,
2013-03-26 14:01:00,53.1,28.2,29.85,North,-999,-999.0,0.0,38,0.00,,---,0.01,VWS V14.01,2013-03-26 18:01:00,
2013-03-26 14:06:00,52.9,26.7,29.85,North,-999,-999.0,0.0,36,0.00,,---,0.01,VWS V14.01,2013-03-26 18:06:00,
2013-03-26 14:12:00,52.2,26.7,29.85,North,-999,-999.0,0.0,37,0.00,,---,0.01,VWS V14.01,2013-03-26 18:12:00,
2013-03-26 14:17:00,51.8,25.7,29.85,North,-999,-999.0,0.0,36,0.00,,---,0.01,VWS V14.01,2013-03-26 18:17:00,
2013-03-26 14:22:00,51.8,25.0,29.85,North,-999,-999.0,0.0,35,0.00,,---,0.01,VWS V14.01,2013-03-26 18:22:00,
2013-03-26 14:27:00,55.3,28.1,29.85,North,-999,-999.0,0.0,35,0.00,,---,0.01,VWS V14.01,2013-03-26 18:27:00,
2013-03-26 14:32:00,56.5,27.8,29.85,North,-999,-999.0,0.0,33,0.00,,---,0.01,VWS V14.01,2013-03-26 18:32:00,
2013-03-26 14:37:00,54.7,26.9,29.85,North,-999,-999.0,0.0,34,0.00,,---,0.01,VWS V14.01,2013-03-26 18:37:00,
2013-03-26 14:42:00,53.3,25.7,29.85,North,-999,-999.0,0.0,34,0.00,,---,0.01,VWS V14.01,2013-03-26 18:42:00,
2013-03-26 14:47:00,52.9,26.7,29.85,North,-999,-999.0,0.0,36,0.00,,---,0.01,VWS V14.01,2013-03-26 18:47:00,
2013-03-26 14:52:00,52.6,24.3,29.85,North,-999,-999.0,0.0,33,0.00,,---,0.01,VWS V14.01,2013-03-26 18:52:00,
2013-03-26 14:57:00,54.7,26.2,29.85,North,-999,-999.0,0.0,33,0.00,,---,0.01,VWS V14.01,2013-03-26 18:57:00,
2013-03-26 15:03:00,54.5,26.0,29.85,North,-999,-999.0,0.0,33,0.00,,---,0.01,VWS V14.01,2013-03-26 19:03:00,
2013-03-26 15:08:00,56.5,27.0,29.85,North,-999,-999.0,0.0,32,0.00,,---,0.01,VWS V14.01,2013-03-26 19:08:00,
2013-03-26 15:13:00,57.1,26.8,29.85,North,-999,-999.0,0.0,31,0.00,,---,0.01,VWS V14.01,2013-03-26 19:13:00,
2013-03-26 15:18:00,57.4,26.2,29.85,North,-999,-999.0,0.0,30,0.00,,---,0.01,VWS V14.01,2013-03-26 19:18:00,
2013-03-26 15:23:00,57.6,27.2,29.85,North,-999,-999.0,0.0,31,0.00,,---,0.01,VWS V14.01,2013-03-26 19:23:00,
2013-03-26 15:28:00,55.8,25.6,29.85,North,-999,-999.0,0.0,31,0.00,,---,0.01,VWS V14.01,2013-03-26 19:28:00,
2013-03-26 15:31:00,56.2,27.5,29.85,North,-999,-999.0,0.0,33,0.00,,---,0.01,VWS V14.01,2013-03-26 19:31:00,
2013-03-26 15:33:00,56.2,27.5,29.85,North,-999,-999.0,0.0,33,0.00,,---,0.01,VWS V14.01,2013-03-26 19:33:00,
2013-03-26 15:39:00,56.2,27.5,29.85,North,-999,-999.0,0.0,33,0.00,,---,0.01,VWS V14.01,2013-03-26 19:39:00,
2013-03-26 16:00:00,58.0,27.6,29.86,North,-999,-999.0,0.0,31,0.00,,---,0.01,VWS V14.01,2013-03-26 20:00:00,
2013-03-26 16:05:00,58.0,27.6,29.86,North,-999,-999.0,0.0,31,0.00,,---,0.01,VWS V14.01,2013-03-26 20:05:00,
2013-03-26 17:00:00,54.5,24.5,29.86,North,-999,-999.0,0.0,31,0.00,,---,0.01,VWS V14.01,2013-03-26 21:00:00,
2013-03-26 17:05:00,57.6,27.2,29.86,North,-999,-999.0,0.0,31,0.00,,---,0.01,VWS V14.01,2013-03-26 21:05:00,
2013-03-26 17:10:00,59.6,28.1,29.86,North,-999,-999.0,0.0,30,0.00,,---,0.01,VWS V14.01,2013-03-26 21:10:00,
2013-03-26 17:16:00,59.4,28.0,29.87,North,-999,-999.0,0.0,30,0.00,,---,0.01,VWS V14.01,2013-03-26 21:16:00,
2013-03-26 17:21:00,57.4,27.0,29.87,North,-999,-999.0,0.0,31,0.00,,---,0.01,VWS V14.01,2013-03-26 21:21:00,
2013-03-26 17:26:00,55.8,26.4,29.87,North,-999,-999.0,0.0,32,0.00,,---,0.01,VWS V14.01,2013-03-26 21:26:00,
2013-03-26 17:31:00,56.2,26.8,29.87,North,-999,-999.0,0.0,32,0.00,,---,0.01,VWS V14.01,2013-03-26 21:31:00,
2013-03-26 17:36:00,57.4,27.8,29.87,North,-999,-999.0,0.0,32,0.00,,---,0.01,VWS V14.01,2013-03-26 21:36:00,
2013-03-26 17:42:00,58.7,26.5,29.87,North,-999,-999.0,0.0,29,0.00,,---,0.01,VWS V14.01,2013-03-26 21:42:00,
2013-03-26 17:47:00,58.3,27.0,29.87,North,-999,-999.0,0.0,30,0.00,,---,0.01,VWS V14.01,2013-03-26 21:47:00,
2013-03-26 17:52:00,57.8,26.6,29.87,North,-999,-999.0,0.0,30,0.00,,---,0.01,VWS V14.01,2013-03-26 21:52:00,
2013-03-26 17:58:00,58.3,27.8,29.88,North,-999,-999.0,0.0,31,0.00,,---,0.01,VWS V14.01,2013-03-26 21:58:00,
2013-03-26 18:03:00,58.9,27.5,29.88,North,-999,-999.0,0.0,30,0.00,,---,0.01,VWS V14.01,2013-03-26 22:03:00,
2013-03-26 18:08:00,58.3,27.8,29.88,North,-999,-999.0,0.0,31,0.00,,---,0.01,VWS V14.01,2013-03-26 22:08:00,
2013-03-26 18:13:00,57.6,26.4,29.89,North,-999,-999.0,0.0,30,0.00,,---,0.01,VWS V14.01,2013-03-26 22:13:00,
2013-03-26 18:18:00,55.4,26.0,29.89,North,-999,-999.0,0.0,32,0.00,,---,0.01,VWS V14.01,2013-03-26 22:18:00,
2013-03-26 18:23:00,53.3,25.0,29.89,North,-999,-999.0,0.0,33,0.00,,---,0.01,VWS V14.01,2013-03-26 22:23:00,
2013-03-26 18:28:00,51.3,24.6,29.89,North,-999,-999.0,0.0,35,0.00,,---,0.01,VWS V14.01,2013-03-26 22:28:00,
2013-03-26 18:33:00,50.8,24.8,29.90,North,-999,-999.0,0.0,36,0.00,,---,0.01,VWS V14.01,2013-03-26 22:33:00,
2013-03-26 18:38:00,50.0,24.8,29.90,North,-999,-999.0,0.0,37,0.00,,---,0.01,VWS V14.01,2013-03-26 22:38:00,
2013-03-26 18:43:00,49.5,24.3,29.90,North,-999,-999.0,0.0,37,0.00,,---,0.01,VWS V14.01,2013-03-26 22:43:00,
2013-03-26 18:48:00,48.6,24.2,29.90,North,-999,-999.0,0.0,38,0.00,,---,0.01,VWS V14.01,2013-03-26 22:48:00,
2013-03-26 18:53:00,48.4,24.6,29.91,North,-999,-999.0,0.0,39,0.00,,---,0.01,VWS V14.01,2013-03-26 22:53:00,
2013-03-26 18:58:00,48.8,25.0,29.91,North,-999,-999.0,0.0,39,0.00,,---,0.01,VWS V14.01,2013-03-26 22:58:00,
2013-03-26 19:04:00,48.6,24.8,29.91,North,-999,-999.0,0.0,39,0.00,,---,0.01,VWS V14.01,2013-03-26 23:04:00,
2013-03-26 19:09:00,47.5,24.4,29.91,North,-999,-999.0,0.0,40,0.00,,---,0.01,VWS V14.01,2013-03-26 23:09:00,
2013-03-26 19:14:00,46.6,24.2,29.92,North,-999,-999.0,0.0,41,0.00,,---,0.01,VWS V14.01,2013-03-26 23:14:00,
2013-03-26 19:19:00,46.1,24.3,29.92,North,-999,-999.0,0.0,42,0.00,,---,0.01,VWS V14.01,2013-03-26 23:19:00,
2013-03-26 19:24:00,45.5,24.3,29.92,North,-999,-999.0,0.0,43,0.00,,---,0.01,VWS V14.01,2013-03-26 23:24:00,
2013-03-26 19:29:00,45.0,23.9,29.92,North,-999,-999.0,0.0,43,0.00,,---,0.01,VWS V14.01,2013-03-26 23:29:00,
2013-03-26 19:34:00,44.6,23.5,29.92,North,-999,-999.0,0.0,43,0.00,,---,0.01,VWS V14.01,2013-03-26 23:34:00,
2013-03-26 19:39:00,44.3,23.8,29.92,North,-999,-999.0,0.0,44,0.00,,---,0.01,VWS V14.01,2013-03-26 23:39:00,
2013-03-26 19:44:00,43.9,23.4,29.93,North,-999,-999.0,0.0,44,0.00,,---,0.01,VWS V14.01,2013-03-26 23:44:00,
2013-03-26 19:49:00,43.7,23.8,29.93,North,-999,-999.0,0.0,45,0.00,,---,0.01,VWS V14.01,2013-03-26 23:49:00,
2013-03-26 19:54:00,43.6,24.2,29.93,North,-999,-999.0,0.0,46,0.00,,---,0.01,VWS V14.01,2013-03-26 23:54:00,
2013-03-26 19:59:00,43.0,23.6,29.94,North,-999,-999.0,0.0,46,0.00,,---,0.01,VWS V14.01,2013-03-26 23:59:00,
2013-03-26 20:05:00,42.7,23.9,29.94,North,-999,-999.0,0.0,47,0.00,,---,0.01,VWS V14.01,2013-03-27 00:05:00,
2013-03-26 20:10:00,42.5,24.7,29.94,North,-999,-999.0,0.0,49,0.00,,---,0.01,VWS V14.01,2013-03-27 00:10:00,
2013-03-26 20:15:00,42.1,23.8,29.95,North,-999,-999.0,0.0,48,0.00,,---,0.01,VWS V14.01,2013-03-27 00:15:00,
2013-03-26 20:20:00,41.8,23.6,29.95,North,-999,-999.0,0.0,48,0.00,,---,0.01,VWS V14.01,2013-03-27 00:20:00,
2013-03-26 20:25:00,41.6,23.9,29.95,North,-999,-999.0,0.0,49,0.00,,---,0.01,VWS V14.01,2013-03-27 00:25:00,
2013-03-26 20:30:00,41.4,23.7,29.95,North,-999,-999.0,0.0,49,0.00,,---,0.01,VWS V14.01,2013-03-27 00:30:00,
2013-03-26 20:35:00,41.2,24.0,29.96,North,-999,-999.0,0.0,50,0.00,,---,0.01,VWS V14.01,2013-03-27 00:35:00,
2013-03-26 20:40:00,41.0,23.8,29.96,North,-999,-999.0,0.0,50,0.00,,---,0.01,VWS V14.01,2013-03-27 00:40:00,
2013-03-26 20:45:00,41.0,23.8,29.96,North,-999,-999.0,0.0,50,0.00,,---,0.01,VWS V14.01,2013-03-27 00:45:00,
2013-03-26 20:51:00,40.9,23.7,29.96,North,-999,-999.0,0.0,50,0.00,,---,0.01,VWS V14.01,2013-03-27 00:51:00,
2013-03-26 20:56:00,40.9,23.7,29.96,North,-999,-999.0,0.0,50,0.00,,---,0.01,VWS V14.01,2013-03-27 00:56:00,
2013-03-26 21:02:00,40.9,23.7,29.97,North,-999,-999.0,0.0,50,0.00,,---,0.01,VWS V14.01,2013-03-27 01:02:00,
2013-03-26 21:08:00,40.9,24.2,29.97,North,-999,-999.0,0.0,51,0.00,,---,0.01,VWS V14.01,2013-03-27 01:08:00,
2013-03-26 21:13:00,40.9,24.2,29.98,North,-999,-999.0,0.0,51,0.00,,---,0.01,VWS V14.01,2013-03-27 01:13:00,
2013-03-26 21:18:00,40.7,24.0,29.98,North,-999,-999.0,0.0,51,0.00,,---,0.01,VWS V14.01,2013-03-27 01:18:00,
2013-03-26 21:23:00,40.5,23.8,29.98,North,-999,-999.0,0.0,51,0.00,,---,0.01,VWS V14.01,2013-03-27 01:23:00,
2013-03-26 21:28:00,40.3,23.6,29.98,North,-999,-999.0,0.0,51,0.00,,---,0.01,VWS V14.01,2013-03-27 01:28:00,
2013-03-26 21:33:00,40.3,24.1,29.98,North,-999,-999.0,0.0,52,0.00,,---,0.01,VWS V14.01,2013-03-27 01:33:00,
2013-03-26 21:38:00,40.1,23.4,29.98,North,-999,-999.0,0.0,51,0.00,,---,0.01,VWS V14.01,2013-03-27 01:38:00,
2013-03-26 21:43:00,40.0,23.8,29.98,North,-999,-999.0,0.0,52,0.00,,---,0.01,VWS V14.01,2013-03-27 01:43:00,
2013-03-26 21:48:00,40.0,23.8,29.98,North,-999,-999.0,0.0,52,0.00,,---,0.01,VWS V14.01,2013-03-27 01:48:00,
2013-03-26 21:53:00,39.8,23.6,29.99,North,-999,-999.0,0.0,52,0.00,,---,0.01,VWS V14.01,2013-03-27 01:53:00,
2013-03-26 21:58:00,39.6,23.4,29.99,North,-999,-999.0,0.0,52,0.00,,---,0.01,VWS V14.01,2013-03-27 01:58:00,
2013-03-26 22:04:00,39.6,23.4,29.99,North,-999,-999.0,0.0,52,0.00,,---,0.01,VWS V14.01,2013-03-27 02:04:00,
2013-03-26 22:09:00,39.6,23.4,29.99,North,-999,-999.0,0.0,52,0.00,,---,0.01,VWS V14.01,2013-03-27 02:09:00,
2013-03-26 22:14:00,39.4,23.2,29.99,North,-999,-999.0,0.0,52,0.00,,---,0.01,VWS V14.01,2013-03-27 02:14:00,
2013-03-26 22:19:00,39.2,23.5,29.99,North,-999,-999.0,0.0,53,0.00,,---,0.01,VWS V14.01,2013-03-27 02:19:00,
2013-03-26 22:24:00,39.2,23.5,30.00,North,-999,-999.0,0.0,53,0.00,,---,0.01,VWS V14.01,2013-03-27 02:24:00,
2013-03-26 22:29:00,39.2,23.5,30.00,North,-999,-999.0,0.0,53,0.00,,---,0.01,VWS V14.01,2013-03-27 02:29:00,
2013-03-26 22:34:00,39.1,23.9,30.00,North,-999,-999.0,0.0,54,0.00,,---,0.01,VWS V14.01,2013-03-27 02:34:00,
2013-03-26 22:39:00,39.1,23.9,30.00,North,-999,-999.0,0.0,54,0.00,,---,0.01,VWS V14.01,2013-03-27 02:39:00,
2013-03-26 22:44:00,38.9,23.7,30.00,North,-999,-999.0,0.0,54,0.00,,---,0.01,VWS V14.01,2013-03-27 02:44:00,
2013-03-26 22:49:00,38.5,22.9,30.00,North,-999,-999.0,0.0,53,0.00,,---,0.01,VWS V14.01,2013-03-27 02:49:00,
2013-03-26 22:54:00,38.3,23.1,30.00,North,-999,-999.0,0.0,54,0.00,,---,0.01,VWS V14.01,2013-03-27 02:54:00,
2013-03-26 22:59:00,38.3,23.1,30.01,North,-999,-999.0,0.0,54,0.00,,---,0.01,VWS V14.01,2013-03-27 02:59:00,
2013-03-26 23:05:00,38.0,22.9,30.01,North,-999,-999.0,0.0,54,0.00,,---,0.01,VWS V14.01,2013-03-27 03:05:00,
2013-03-26 23:10:00,37.8,22.7,30.01,North,-999,-999.0,0.0,54,0.00,,---,0.01,VWS V14.01,2013-03-27 03:10:00,
2013-03-26 23:15:00,37.6,22.9,30.01,North,-999,-999.0,0.0,55,0.00,,---,0.01,VWS V14.01,2013-03-27 03:15:00,
2013-03-26 23:20:00,37.4,22.7,30.01,North,-999,-999.0,0.0,55,0.00,,---,0.01,VWS V14.01,2013-03-27 03:20:00,
2013-03-26 23:25:00,37.3,22.6,30.01,North,-999,-999.0,0.0,55,0.00,,---,0.01,VWS V14.01,2013-03-27 03:25:00,
2013-03-26 23:30:00,37.1,22.4,30.01,North,-999,-999.0,0.0,55,0.00,,---,0.01,VWS V14.01,2013-03-27 03:30:00,
2013-03-26 23:35:00,36.9,22.3,30.01,North,-999,-999.0,0.0,55,0.00,,---,0.01,VWS V14.01,2013-03-27 03:35:00,
2013-03-26 23:40:00,36.5,22.3,30.01,North,-999,-999.0,0.0,56,0.00,,---,0.01,VWS V14.01,2013-03-27 03:40:00,
2013-03-26 23:45:00,36.2,22.0,30.01,North,-999,-999.0,0.0,56,0.00,,---,0.01,VWS V14.01,2013-03-27 03:45:00,
2013-03-26 23:50:00,35.8,22.1,30.01,North,-999,-999.0,0.0,57,0.00,,---,0.01,VWS V14.01,2013-03-27 03:50:00,
2013-03-26 23:55:00,35.6,21.9,30.01,North,-999,-999.0,0.0,57,0.00,,---,0.01,VWS V14.01,2013-03-27 03:55:00,